DW4725 Weather Reports


Display with metric or nautical units.
time (UTC)temp
F
wind
direction
speed
MPH
gust
MPH
rain 1hr
in
rain 24hr
in
rain mn
in
humidity
%
barometer
mb
20260510013544 53 124 2.0 6.0 0.00 0.00 0.00 85 1011.2
20260510013338 53 93 3.0 6.0 0.00 0.00 0.00 84 1011.2
20260510012820 53 126 3.0 6.0 0.00 0.00 0.00 85 1011.3
20260510012253 53 98 4.0 6.0 0.00 0.00 0.00 86 1011.3
20260510012043 53 133 4.0 6.0 0.00 0.00 0.00 86 1011.3
20260510011834 53 109 3.0 6.0 0.00 0.00 0.00 86 1011.3
20260510011631 52 98 3.0 6.0 0.00 0.00 0.00 86 1011.3
20260510011427 53 131 4.0 6.0 0.00 0.00 0.00 86 1011.4
20260510011225 53 110 3.0 6.0 0.00 0.00 0.00 85 1011.3
20260510011019 53 101 3.0 6.0 0.00 0.00 0.00 85 1011.4
20260510010814 53 100 3.0 6.0 0.00 0.00 0.00 85 1011.4
20260510010611 53 114 3.0 6.0 0.00 0.00 0.00 85 1011.4
20260510010401 53 112 2.0 5.0 0.00 0.00 0.00 84 1011.4
20260510010159 53 124 2.0 5.0 0.00 0.00 0.00 84 1011.4
20260510005952 53 110 2.0 5.0 0.00 0.00 0.00 84 1011.4
20260510005747 53 86 2.0 5.0 0.00 0.00 0.00 84 1011.4
20260510005544 53 103 3.0 5.0 0.00 0.00 0.00 84 1011.4
20260510005341 53 117 3.0 5.0 0.00 0.00 0.00 84 1011.3
20260510005132 53 92 3.0 5.0 0.00 0.00 0.00 84 1011.4
20260510004928 53 136 3.0 5.0 0.00 0.00 0.00 84 1011.4
20260510004723 53 121 3.0 6.0 0.00 0.00 0.00 83 1011.4
20260510004513 54 136 3.0 6.0 0.00 0.00 0.00 83 1011.5
20260510003945 54 121 2.0 6.0 0.00 0.00 0.00 83 1011.5
20260510003745 54 121 2.0 6.0 0.00 0.00 0.00 83 1011.5
20260510003537 54 120 3.0 6.0 0.00 0.00 0.00 83 1011.4
20260510003333 54 107 3.0 6.0 0.00 0.00 0.00 84 1011.6
20260510003132 54 123 3.0 6.0 0.00 0.00 0.00 84 1011.7
20260510002930 53 103 3.0 6.0 0.00 0.00 0.00 84 1011.5
20260510002727 54 117 3.0 5.0 0.00 0.00 0.00 84 1011.6
20260510002525 54 113 2.0 5.0 0.00 0.00 0.00 84 1011.6
20260510002325 54 98 2.0 5.0 0.00 0.00 0.00 84 1011.7
20260510002118 54 123 1.0 5.0 0.00 0.00 0.00 83 1011.7
20260510001916 54 123 0.0 3.0 0.00 0.00 0.00 82 1011.7
20260510001347 55 118 0.0 2.0 0.00 0.00 0.00 80 1011.8
20260510001142 56 114 0.0 1.0 0.00 0.00 0.00 79 1011.7
20260510000618 56 120 0.0 0.0 0.00 0.00 0.00 78 1011.8
20260510000413 56 121 0.0 0.0 0.00 0.00 0.00 78 1011.8
20260510000205 56 120 0.0 0.0 0.00 0.00 0.00 78 1012.0
20260509235959 56 120 0.0 0.0 0.00 0.00 0.00 78 1012.0
20260509235749 56 120 0.0 0.0 0.00 0.00 0.00 78 1012.0
20260509235544 56 120 0.0 0.0 0.00 0.00 0.00 79 1012.1
20260509235335 56 120 0.0 0.0 0.00 0.00 0.00 79 1012.1
20260509235132 56 121 0.0 0.0 0.00 0.00 0.00 79 1012.1
20260509234922 56 120 0.0 0.0 0.00 0.00 0.00 79 1012.0
20260509234720 56 120 0.0 0.0 0.00 0.00 0.00 79 1012.1
20260509234520 55 120 0.0 2.0 0.00 0.00 0.00 79 1012.1
20260509234311 55 120 0.0 2.0 0.00 0.00 0.00 80 1012.1
20260509234103 55 120 0.0 2.0 0.00 0.00 0.00 81 1012.1
20260509233853 55 115 0.0 2.0 0.00 0.00 0.00 81 1012.2
20260509233651 55 120 0.0 2.0 0.00 0.00 0.00 81 1012.2
20260509233441 55 82 0.0 2.0 0.00 0.00 0.00 80 1012.2
20260509232918 55 120 0.0 0.0 0.00 0.00 0.00 80 1012.3
20260509232349 55 103 0.0 2.0 0.00 0.00 0.00 80 1012.2
20260509232147 55 94 0.0 2.0 0.00 0.00 0.00 79 1012.2
20260509231943 55 215 0.0 0.0 0.00 0.00 0.00 79 1012.2
20260509231734 55 215 0.0 1.0 0.00 0.00 0.00 80 1012.2
20260509231531 55 218 0.0 1.0 0.00 0.00 0.00 81 1012.3
20260509231326 55 230 0.0 1.0 0.00 0.00 0.00 81 1012.2
20260509231119 55 84 0.0 0.0 0.00 0.00 0.00 82 1012.2
20260509230914 55 108 0.0 3.0 0.00 0.00 0.00 83 1012.2
20260509230713 54 113 0.0 3.0 0.00 0.00 0.00 83 1012.2
20260509230513 54 102 0.0 2.0 0.00 0.00 0.00 84 1012.3
20260509225626 55 120 2.0 4.0 0.00 0.00 0.00 84 1012.3
20260509225058 54 105 2.0 4.0 0.00 0.00 0.00 84 1012.3
20260509224849 55 117 2.0 4.0 0.00 0.00 0.00 83 1012.3
20260509224649 55 116 2.0 4.0 0.00 0.00 0.00 83 1012.2
20260509224443 55 119 1.0 4.0 0.00 0.00 0.00 83 1012.3
20260509224232 55 104 1.0 4.0 0.00 0.00 0.00 83 1012.2
20260509224027 55 134 1.0 4.0 0.00 0.00 0.00 83 1012.2
20260509223827 55 118 1.0 4.0 0.00 0.00 0.00 82 1012.3
20260509223618 55 103 1.0 4.0 0.00 0.00 0.00 82 1012.2
20260509223408 55 115 1.0 4.0 0.00 0.00 0.00 82 1012.2
20260509223204 55 127 1.0 4.0 0.00 0.00 0.00 81 1012.4
20260509223004 55 110 1.0 4.0 0.00 0.00 0.00 81 1012.4
20260509222756 55 108 1.0 4.0 0.00 0.00 0.00 82 1012.3
20260509222549 55 82 1.0 4.0 0.00 0.00 0.00 82 1012.3
20260509222347 55 100 1.0 4.0 0.00 0.00 0.00 82 1012.3
20260509222139 55 96 1.0 4.0 0.00 0.00 0.00 82 1012.3
20260509221930 55 108 1.0 4.0 0.00 0.00 0.00 82 1012.3
20260509221729 55 110 1.0 4.0 0.00 0.00 0.00 82 1012.2
20260509221212 55 94 1.0 3.0 0.00 0.00 0.00 82 1012.3
20260509221004 55 115 1.0 6.0 0.00 0.00 0.00 82 1012.4
20260509220754 55 100 1.0 6.0 0.00 0.00 0.00 82 1012.3
20260509220544 55 114 2.0 6.0 0.00 0.00 0.00 82 1012.4
20260509220339 55 103 2.0 6.0 0.00 0.00 0.00 82 1012.4
20260509220130 55 105 2.0 6.0 0.00 0.00 0.00 81 1012.3
20260509215930 55 105 2.0 6.0 0.00 0.00 0.00 81 1012.3
20260509215730 55 105 2.0 6.0 0.00 0.00 0.00 81 1012.3
20260509215525 55 108 2.0 6.0 0.00 0.00 0.00 81 1012.4
20260509215004 55 115 2.0 4.0 0.00 0.00 0.00 81 1012.4
20260509214433 55 121 1.0 4.0 0.00 0.00 0.00 81 1012.3
20260509214234 55 110 1.0 4.0 0.00 0.00 0.00 81 1012.3
20260509213703 55 111 1.0 4.0 0.00 0.00 0.00 81 1012.3
20260509213456 55 103 2.0 4.0 0.00 0.00 0.00 80 1012.4
20260509213253 55 105 2.0 4.0 0.00 0.00 0.00 80 1012.5
20260509212724 56 108 1.0 4.0 0.00 0.00 0.00 80 1012.4
20260509212521 55 115 2.0 4.0 0.00 0.00 0.00 80 1012.5
20260509212312 55 103 2.0 4.0 0.00 0.00 0.00 80 1012.6
20260509212105 55 101 2.0 4.0 0.00 0.00 0.00 80 1012.5
20260509211541 56 119 2.0 5.0 0.00 0.00 0.00 81 1012.7
20260509211340 56 115 2.0 5.0 0.00 0.00 0.00 81 1012.8
20260509211131 56 105 2.0 5.0 0.00 0.00 0.00 81 1012.7
20260509210931 56 106 1.0 5.0 0.00 0.00 0.00 80 1012.8
20260509210723 56 103 1.0 5.0 0.00 0.00 0.00 80 1012.8
20260509210153 56 75 1.0 5.0 0.00 0.00 0.00 81 1012.8
20260509205942 56 105 1.0 5.0 0.00 0.00 0.00 80 1012.9
20260509205734 56 101 2.0 5.0 0.00 0.00 0.00 80 1012.9
20260509205529 56 84 2.0 5.0 0.00 0.00 0.00 80 1012.9
20260509205012 56 111 2.0 5.0 0.00 0.00 0.00 79 1013.0
20260509204810 56 100 2.0 5.0 0.00 0.00 0.00 80 1012.9
20260509204605 56 108 2.0 5.0 0.00 0.00 0.00 80 1012.9
20260509204401 56 101 2.0 5.0 0.00 0.00 0.00 80 1013.0
20260509204158 56 98 2.0 5.0 0.00 0.00 0.00 80 1013.0
20260509203629 56 113 2.0 5.0 0.00 0.00 0.00 80 1012.9
20260509203422 56 102 2.0 4.0 0.00 0.00 0.00 79 1012.9
20260509203221 56 120 2.0 4.0 0.00 0.00 0.00 79 1012.9
20260509203016 56 114 2.0 4.0 0.00 0.00 0.00 79 1012.9
20260509202124 57 102 2.0 5.0 0.00 0.00 0.00 77 1012.8
20260509201916 57 91 2.0 5.0 0.00 0.00 0.00 76 1012.8
20260509201706 57 91 2.0 5.0 0.00 0.00 0.00 76 1012.7
20260509201507 57 100 2.0 5.0 0.00 0.00 0.00 76 1012.7
20260509201302 57 101 2.0 5.0 0.00 0.00 0.00 76 1012.8
20260509201058 57 96 3.0 5.0 0.00 0.00 0.00 75 1012.8
20260509200852 57 113 3.0 5.0 0.00 0.00 0.00 75 1012.8
20260509200644 57 111 3.0 5.0 0.00 0.00 0.00 75 1012.7
20260509200437 57 94 3.0 5.0 0.00 0.00 0.00 75 1012.6
20260509200236 57 98 2.0 5.0 0.00 0.00 0.00 75 1012.7
20260509200027 57 127 2.0 5.0 0.00 0.00 0.00 75 1012.8
20260509195821 57 113 1.0 5.0 0.00 0.00 0.00 75 1012.8
20260509195616 57 105 2.0 6.0 0.00 0.00 0.00 75 1012.8
20260509195416 57 102 2.0 6.0 0.00 0.00 0.00 75 1012.8
20260509194852 57 108 3.0 6.0 0.00 0.00 0.00 74 1012.7
20260509194642 57 134 3.0 6.0 0.00 0.00 0.00 74 1012.7
20260509194432 57 111 3.0 6.0 0.00 0.00 0.00 74 1012.7
20260509194232 57 106 3.0 6.0 0.00 0.00 0.00 74 1012.7
20260509193710 57 105 2.0 6.0 0.00 0.00 0.00 74 1012.7
20260509193504 57 77 2.0 6.0 0.00 0.00 0.00 74 1012.7
20260509193302 57 105 2.0 6.0 0.00 0.00 0.00 74 1012.6
20260509193055 57 105 3.0 6.0 0.00 0.00 0.00 74 1012.6
20260509192849 57 94 3.0 6.0 0.00 0.00 0.00 74 1012.5
20260509192647 57 102 3.0 8.0 0.00 0.00 0.00 74 1012.6
20260509192446 57 116 3.0 8.0 0.00 0.00 0.00 74 1012.6
20260509192240 57 108 3.0 8.0 0.00 0.00 0.00 74 1012.6
20260509192031 57 125 3.0 8.0 0.00 0.00 0.00 74 1012.6
20260509191824 57 104 3.0 8.0 0.00 0.00 0.00 74 1012.6
20260509191617 57 105 3.0 8.0 0.00 0.00 0.00 74 1012.6
20260509191411 58 105 3.0 8.0 0.00 0.00 0.00 74 1012.6
20260509191207 58 113 3.0 8.0 0.00 0.00 0.00 74 1012.7
20260509191006 58 92 3.0 8.0 0.00 0.00 0.00 73 1012.6
20260509190757 58 110 3.0 8.0 0.00 0.00 0.00 73 1012.6
20260509190548 58 113 3.0 6.0 0.00 0.00 0.00 73 1012.6
20260509190340 58 108 2.0 6.0 0.00 0.00 0.00 73 1012.6
20260509190139 58 96 2.0 6.0 0.00 0.00 0.00 73 1012.6
20260509185936 58 75 2.0 7.0 0.00 0.00 0.00 73 1012.6
20260509185731 59 100 2.0 7.0 0.00 0.00 0.00 72 1012.7
20260509185526 59 76 2.0 7.0 0.00 0.00 0.00 72 1012.6
20260509185324 59 110 2.0 7.0 0.00 0.00 0.00 72 1012.7
20260509184808 60 96 2.0 7.0 0.00 0.00 0.00 72 1012.7
20260509184246 61 88 2.0 7.0 0.00 0.00 0.00 70 1012.7
20260509184038 61 103 2.0 4.0 0.00 0.00 0.00 69 1012.7
20260509183836 62 95 2.0 4.0 0.00 0.00 0.00 66 1012.7
20260509183631 62 72 1.0 4.0 0.00 0.00 0.00 62 1012.7
20260509183422 62 38 2.0 4.0 0.00 0.00 0.00 62 1012.7
20260509182903 62 47 2.0 4.0 0.00 0.00 0.00 61 1012.7
20260509182701 62 49 2.0 4.0 0.00 0.00 0.00 61 1012.7
20260509182139 62 47 1.0 4.0 0.00 0.00 0.00 60 1012.6
20260509181938 62 46 1.0 4.0 0.00 0.00 0.00 60 1012.7
20260509181731 63 53 0.0 4.0 0.00 0.00 0.00 60 1012.7
20260509181529 63 46 0.0 5.0 0.00 0.00 0.00 60 1012.7
20260509181319 63 43 0.0 5.0 0.00 0.00 0.00 62 1012.8
20260509180117 63 51 3.0 8.0 0.00 0.00 0.00 65 1012.6
20260509175915 63 44 4.0 8.0 0.00 0.00 0.00 64 1012.7
20260509175402 64 37 4.0 8.0 0.00 0.00 0.00 64 1012.7
20260509174844 64 32 4.0 8.0 0.00 0.00 0.00 64 1012.7
20260509174643 64 15 4.0 8.0 0.00 0.00 0.00 64 1012.7
20260509173758 64 20 4.0 11.0 0.00 0.00 0.00 63 1012.7
20260509173550 64 55 5.0 11.0 0.00 0.00 0.00 63 1012.7
20260509173341 65 68 5.0 11.0 0.00 0.00 0.00 62 1012.8
20260509173141 64 35 5.0 11.0 0.00 0.00 0.00 62 1012.8
20260509172931 64 40 5.0 11.0 0.00 0.00 0.00 61 1012.9
20260509172729 65 53 5.0 11.0 0.00 0.00 0.00 62 1012.8
20260509172202 65 53 5.0 10.0 0.00 0.01 0.00 61 1012.7
20260509171959 65 53 5.0 10.0 0.00 0.01 0.00 61 1012.8
20260509171757 65 44 5.0 11.0 0.00 0.02 0.00 61 1012.8
20260509171555 65 46 5.0 11.0 0.00 0.02 0.00 60 1012.8
20260509171350 65 30 5.0 11.0 0.00 0.02 0.00 60 1012.8
20260509171140 65 53 5.0 11.0 0.00 0.02 0.00 60 1012.7
20260509170929 65 47 5.0 11.0 0.00 0.02 0.00 60 1012.8
20260509170046 65 44 4.0 13.0 0.00 0.02 0.00 61 1012.8
20260509165845 65 47 4.0 13.0 0.00 0.02 0.00 61 1012.7
20260509165639 65 51 5.0 13.0 0.00 0.02 0.00 60 1012.6
20260509165430 65 60 5.0 13.0 0.00 0.02 0.00 61 1012.7
20260509165231 65 51 5.0 13.0 0.00 0.02 0.00 61 1012.7
20260509165028 65 68 5.0 13.0 0.00 0.02 0.00 60 1012.7
20260509164826 65 48 5.0 11.0 0.00 0.02 0.00 60 1012.7
20260509164302 65 60 6.0 13.0 0.00 0.02 0.00 60 1012.6
20260509164102 65 33 5.0 13.0 0.00 0.02 0.00 61 1012.8
20260509163853 65 49 5.0 13.0 0.00 0.02 0.00 61 1012.8
20260509163651 66 37 5.0 13.0 0.00 0.02 0.00 60 1012.7
20260509163136 66 44 5.0 13.0 0.00 0.02 0.00 60 1012.8
20260509162929 66 36 5.0 13.0 0.00 0.02 0.00 60 1012.8
20260509162354 66 68 5.0 11.0 0.00 0.02 0.00 63 1012.9
20260509162144 66 342 5.0 11.0 0.00 0.02 0.00 62 1012.9
20260509161940 66 52 5.0 11.0 0.00 0.02 0.00 60 1013.0
20260509161419 66 13 5.0 11.0 0.00 0.02 0.00 61 1013.1
20260509161212 66 11 5.0 12.0 0.00 0.02 0.00 61 1013.0
20260509160335 65 53 7.0 12.0 0.00 0.02 0.00 61 1013.2
20260509160133 65 34 7.0 12.0 0.00 0.02 0.00 60 1013.1
20260509155926 65 44 7.0 12.0 0.00 0.02 0.00 61 1013.2
20260509155727 65 49 7.0 12.0 0.00 0.02 0.00 61 1013.2
20260509155200 65 37 5.0 12.0 0.00 0.02 0.00 60 1013.2
20260509154951 65 44 5.0 12.0 0.00 0.02 0.00 61 1013.2
20260509154742 66 65 4.0 12.0 0.00 0.02 0.00 61 1013.3
20260509154535 66 75 5.0 12.0 0.00 0.02 0.00 62 1013.4
20260509154331 65 72 6.0 12.0 0.00 0.02 0.00 61 1013.4
20260509154132 65 36 6.0 12.0 0.00 0.02 0.00 61 1013.3
20260509153243 66 30 5.0 12.0 0.00 0.02 0.00 61 1013.2
20260509152717 66 44 6.0 15.0 0.00 0.02 0.00 62 1013.3
20260509152507 65 48 6.0 15.0 0.00 0.02 0.00 61 1013.3
20260509152257 65 53 6.0 15.0 0.00 0.02 0.00 61 1013.3
20260509152048 65 46 6.0 15.0 0.00 0.02 0.00 61 1013.3
20260509151841 65 32 6.0 15.0 0.00 0.02 0.00 61 1013.3
20260509151641 66 49 6.0 15.0 0.00 0.02 0.00 63 1013.2
20260509151440 65 45 5.0 15.0 0.00 0.02 0.00 62 1013.2
20260509151235 65 59 5.0 15.0 0.00 0.02 0.00 60 1013.2
20260509151034 66 66 6.0 15.0 0.00 0.02 0.00 61 1013.2
20260509150832 65 11 5.0 13.0 0.00 0.02 0.00 62 1013.1
20260509150626 65 49 6.0 13.0 0.00 0.02 0.00 61 1013.2
20260509150421 65 48 6.0 13.0 0.00 0.02 0.00 61 1013.1
20260509150218 65 54 7.0 14.0 0.00 0.02 0.00 60 1013.2
20260509145700 65 48 5.0 14.0 0.00 0.02 0.00 61 1013.1
20260509145453 66 63 4.0 14.0 0.00 0.02 0.00 60 1013.2
20260509144925 65 53 5.0 14.0 0.00 0.02 0.00 60 1013.1
20260509144724 65 84 6.0 14.0 0.00 0.02 0.00 60 1013.2
20260509144515 65 37 6.0 14.0 0.00 0.02 0.00 62 1013.2
20260509144305 65 39 6.0 14.0 0.00 0.02 0.00 60 1013.2
20260509144103 65 23 6.0 12.0 0.00 0.02 0.00 59 1013.2
20260509143904 66 67 5.0 12.0 0.00 0.02 0.00 60 1013.2
20260509143659 66 43 5.0 12.0 0.00 0.02 0.00 61 1013.2
20260509143452 66 58 4.0 11.0 0.00 0.02 0.00 62 1013.3
20260509143246 66 52 4.0 11.0 0.00 0.02 0.00 62 1013.3
20260509143043 66 60 3.0 11.0 0.00 0.02 0.00 59 1013.3
20260509142842 66 126 4.0 11.0 0.00 0.02 0.00 62 1013.3
20260509142632 66 58 4.0 11.0 0.00 0.02 0.00 59 1013.3
20260509142422 66 54 4.0 11.0 0.00 0.02 0.00 60 1013.3
20260509142215 66 267 5.0 12.0 0.00 0.02 0.00 61 1013.3
20260509142005 65 60 6.0 12.0 0.00 0.02 0.00 59 1013.3
20260509141447 65 192 6.0 12.0 0.00 0.02 0.00 59 1013.4
20260509141243 65 19 6.0 12.0 0.00 0.02 0.00 61 1013.4
20260509141039 65 32 7.0 12.0 0.00 0.02 0.00 60 1013.4
20260509140832 65 60 6.0 12.0 0.00 0.02 0.00 57 1013.5
20260509140630 65 33 7.0 12.0 0.00 0.02 0.00 58 1013.5
20260509140430 65 58 6.0 12.0 0.00 0.02 0.00 57 1013.5
20260509140222 65 33 5.0 11.0 0.00 0.02 0.00 59 1013.6
20260509140019 65 46 5.0 13.0 0.00 0.02 0.00 59 1013.5
20260509135819 65 56 5.0 13.0 0.00 0.02 0.00 56 1013.5
20260509135615 66 30 4.0 13.0 0.00 0.02 0.00 60 1013.5
20260509135405 65 53 5.0 13.0 0.00 0.02 0.00 59 1013.6
20260509134843 65 314 6.0 15.0 0.00 0.02 0.00 60 1013.6
20260509134638 65 46 6.0 15.0 0.00 0.02 0.00 59 1013.6
20260509134439 65 53 6.0 15.0 0.00 0.02 0.00 58 1013.6
20260509134235 65 49 7.0 15.0 0.00 0.02 0.00 58 1013.6
20260509134036 65 39 7.0 15.0 0.00 0.02 0.00 58 1013.6
20260509133827 65 165 7.0 15.0 0.00 0.02 0.00 60 1013.6
20260509133628 64 49 7.0 15.0 0.00 0.02 0.00 56 1013.6
20260509133424 65 43 7.0 15.0 0.00 0.02 0.00 59 1013.6
20260509132904 65 41 7.0 13.0 0.00 0.02 0.00 57 1013.7
20260509132658 64 41 7.0 13.0 0.00 0.02 0.00 57 1013.7
20260509132448 65 47 7.0 14.0 0.00 0.02 0.00 58 1013.8
20260509132248 64 47 6.0 14.0 0.00 0.02 0.00 59 1013.7
20260509132046 64 23 6.0 14.0 0.00 0.02 0.00 57 1014.0
20260509131842 64 23 6.0 14.0 0.00 0.02 0.00 57 1013.9
20260509131636 64 46 6.0 14.0 0.00 0.02 0.00 59 1014.0
20260509131428 64 43 6.0 14.0 0.00 0.02 0.00 61 1014.0
20260509131220 64 51 7.0 14.0 0.00 0.02 0.00 58 1014.1
20260509130650 64 82 7.0 14.0 0.00 0.02 0.00 59 1014.2
20260509130450 64 45 7.0 14.0 0.00 0.02 0.00 59 1014.2
20260509125917 64 46 7.0 14.0 0.00 0.02 0.00 60 1014.2
20260509125714 64 39 7.0 14.0 0.00 0.02 0.00 61 1014.2
20260509125143 64 42 7.0 14.0 0.00 0.02 0.00 62 1014.2
20260509124936 64 41 8.0 14.0 0.00 0.02 0.00 61 1014.1
20260509124727 64 17 7.0 14.0 0.00 0.02 0.00 63 1014.2
20260509124517 64 58 7.0 14.0 0.00 0.02 0.00 62 1014.2
20260509124314 64 46 7.0 15.0 0.00 0.02 0.00 61 1014.2
20260509124112 64 44 6.0 15.0 0.00 0.02 0.00 61 1014.2
20260509123913 65 40 6.0 15.0 0.00 0.02 0.00 62 1014.2
20260509123703 65 58 4.0 15.0 0.00 0.02 0.00 63 1014.2
20260509123455 65 243 5.0 15.0 0.00 0.02 0.00 63 1014.2
20260509123247 64 276 5.0 15.0 0.00 0.02 0.00 66 1014.2
20260509122723 65 132 3.0 15.0 0.00 0.02 0.00 63 1014.3
20260509122201 64 356 5.0 13.0 0.00 0.02 0.00 65 1014.5
20260509121638 63 240 7.0 13.0 0.00 0.02 0.00 66 1014.5
20260509121105 64 54 7.0 13.0 0.00 0.02 0.00 65 1014.6
20260509120902 63 43 6.0 13.0 0.00 0.02 0.00 66 1014.7
20260509120700 64 18 6.0 13.0 0.00 0.02 0.00 65 1014.7
20260509120450 63 301 6.0 13.0 0.00 0.02 0.00 66 1014.6
20260509120251 63 101 6.0 13.0 0.00 0.02 0.00 65 1014.7
20260509120041 63 46 5.0 13.0 0.00 0.02 0.00 64 1014.8
20260509115831 63 60 5.0 13.0 0.00 0.02 0.00 67 1014.8
20260509114953 63 42 6.0 13.0 0.00 0.02 0.00 68 1014.9
20260509114748 63 52 6.0 13.0 0.00 0.02 0.00 67 1014.9
20260509114544 63 77 6.0 13.0 0.00 0.02 0.00 69 1014.8
20260509114344 63 52 5.0 13.0 0.00 0.02 0.00 68 1015.0
20260509114138 63 51 5.0 13.0 0.00 0.02 0.00 70 1014.9
20260509113933 63 59 5.0 13.0 0.00 0.02 0.00 68 1015.0
20260509113731 63 36 6.0 13.0 0.00 0.02 0.00 66 1015.1
20260509113522 63 44 6.0 13.0 0.00 0.02 0.00 67 1015.2
20260509113323 63 49 6.0 13.0 0.00 0.02 0.00 65 1015.2
20260509113120 63 48 6.0 13.0 0.00 0.02 0.00 68 1015.0
20260509112910 62 80 6.0 13.0 0.00 0.02 0.00 66 1015.2
20260509112707 63 49 5.0 12.0 0.00 0.02 0.00 66 1015.3
20260509112504 63 351 5.0 12.0 0.00 0.02 0.00 66 1015.2
20260509112301 63 47 6.0 12.0 0.00 0.02 0.00 70 1015.3
20260509111737 62 131 7.0 12.0 0.00 0.02 0.00 70 1015.4
20260509111537 62 62 6.0 12.0 0.00 0.02 0.00 70 1015.4
20260509111335 62 57 7.0 13.0 0.00 0.02 0.00 69 1015.5
20260509111126 62 65 6.0 13.0 0.00 0.02 0.00 70 1015.5
20260509110923 62 43 6.0 13.0 0.00 0.02 0.00 70 1015.6
20260509110717 62 61 6.0 13.0 0.00 0.02 0.00 71 1015.6
20260509110510 62 50 7.0 13.0 0.00 0.02 0.00 70 1015.4
20260509110304 62 40 8.0 13.0 0.00 0.02 0.00 71 1015.4
20260509110058 62 49 7.0 13.0 0.00 0.02 0.00 70 1015.5
20260509105537 62 38 6.0 13.0 0.00 0.02 0.00 68 1015.6
20260509105330 62 51 5.0 12.0 0.00 0.02 0.00 67 1015.7
20260509105120 62 234 6.0 12.0 0.00 0.02 0.00 72 1015.7
20260509104917 62 85 6.0 12.0 0.00 0.02 0.00 75 1015.8
20260509104356 61 46 5.0 12.0 0.00 0.02 0.00 71 1015.9
20260509104151 61 46 6.0 12.0 0.00 0.02 0.00 71 1015.9
20260509103951 61 47 5.0 12.0 0.00 0.02 0.00 69 1015.9
20260509103745 61 57 5.0 13.0 0.00 0.02 0.00 70 1015.9
20260509103545 61 53 6.0 13.0 0.00 0.02 0.00 70 1015.9
20260509103346 61 43 6.0 13.0 0.00 0.02 0.00 71 1015.9
20260509103146 61 44 5.0 13.0 0.00 0.02 0.00 71 1016.0
20260509102938 61 42 5.0 13.0 0.00 0.02 0.00 73 1015.9
20260509102736 61 20 6.0 13.0 0.00 0.02 0.00 73 1015.9
20260509102534 61 51 5.0 13.0 0.00 0.02 0.00 72 1016.0
20260509102324 61 19 4.0 13.0 0.00 0.02 0.00 74 1016.0
20260509102117 61 94 5.0 13.0 0.00 0.02 0.00 73 1016.1
20260509101916 61 39 5.0 13.0 0.00 0.02 0.00 72 1016.1
20260509101356 60 44 8.0 12.0 0.00 0.02 0.00 73 1016.1
20260509101145 60 50 7.0 12.0 0.00 0.02 0.00 74 1016.1
20260509100943 60 39 6.0 12.0 0.00 0.02 0.00 75 1016.1
20260509100737 60 47 6.0 12.0 0.00 0.02 0.00 74 1016.1
20260509100534 60 344 5.0 12.0 0.00 0.02 0.00 76 1016.1
20260509095655 60 57 5.0 11.0 0.00 0.02 0.00 79 1016.2
20260509095450 60 17 4.0 11.0 0.00 0.02 0.00 77 1016.1
20260509094928 60 45 3.0 12.0 0.00 0.02 0.00 77 1016.2
20260509094722 60 36 4.0 12.0 0.00 0.02 0.00 76 1016.2
20260509094519 60 76 4.0 12.0 0.00 0.02 0.00 78 1016.3
20260509094315 60 41 4.0 12.0 0.00 0.02 0.00 78 1016.2
20260509094110 59 57 5.0 12.0 0.00 0.02 0.00 78 1016.3
20260509093910 59 27 5.0 12.0 0.00 0.02 0.00 76 1016.3
20260509093352 59 72 4.0 12.0 0.00 0.02 0.00 78 1016.4
20260509093144 59 55 4.0 12.0 0.00 0.02 0.00 79 1016.4
20260509092610 60 28 2.0 10.0 0.00 0.02 0.00 79 1016.4
20260509092409 60 226 2.0 10.0 0.00 0.02 0.00 79 1016.4
20260509091846 59 136 4.0 10.0 0.00 0.02 0.00 82 1016.4
20260509091639 58 46 5.0 10.0 0.00 0.02 0.00 80 1016.4
20260509091434 58 60 5.0 10.0 0.00 0.02 0.00 80 1016.4
20260509091226 58 41 5.0 10.0 0.00 0.02 0.00 80 1016.4
20260509091027 58 41 5.0 10.0 0.00 0.02 0.00 79 1016.4
20260509090818 58 49 4.0 10.0 0.00 0.02 0.00 80 1016.4
20260509090614 58 20 4.0 9.0 0.00 0.02 0.00 81 1016.5
20260509090405 58 33 4.0 9.0 0.00 0.02 0.00 80 1016.5
20260509090159 58 34 4.0 9.0 0.00 0.02 0.00 80 1016.5
20260509085953 58 97 4.0 9.0 0.00 0.02 0.00 80 1016.5
20260509085749 58 53 4.0 9.0 0.00 0.02 0.00 80 1016.5
20260509085548 58 42 3.0 9.0 0.00 0.02 0.00 80 1016.5
20260509085342 58 36 3.0 9.0 0.00 0.02 0.00 81 1016.4
20260509085143 59 75 2.0 9.0 0.00 0.02 0.00 80 1016.4
20260509084934 59 10 1.0 8.0 0.00 0.02 0.00 82 1016.4
20260509084731 59 65 1.0 7.0 0.00 0.02 0.00 82 1016.4
20260509084526 59 218 1.0 7.0 0.00 0.02 0.00 85 1016.4
20260509084316 58 131 2.0 7.0 0.00 0.02 0.00 83 1016.4
20260509084108 58 238 2.0 7.0 0.00 0.02 0.00 84 1016.4
20260509083907 58 63 2.0 7.0 0.00 0.02 0.00 83 1016.4
20260509083703 58 124 1.0 7.0 0.00 0.02 0.00 81 1016.4
20260509083137 58 37 1.0 6.0 0.00 0.02 0.00 81 1016.5
20260509082928 58 81 1.0 6.0 0.00 0.02 0.00 82 1016.4
20260509082721 58 85 2.0 6.0 0.00 0.02 0.00 81 1016.5
20260509082510 58 52 2.0 6.0 0.00 0.02 0.00 81 1016.5
20260509081951 57 51 1.0 6.0 0.00 0.02 0.00 81 1016.4
20260509081751 57 42 1.0 6.0 0.00 0.02 0.00 80 1016.5
20260509081541 58 39 0.0 5.0 0.00 0.02 0.00 81 1016.5
20260509081331 57 89 0.0 5.0 0.00 0.02 0.00 83 1016.5
20260509081123 57 186 1.0 5.0 0.00 0.02 0.00 83 1016.5
20260509080915 57 252 1.0 5.0 0.00 0.02 0.00 83 1016.4
20260509080707 56 88 1.0 5.0 0.00 0.02 0.00 83 1016.5
20260509080459 56 54 1.0 5.0 0.00 0.02 0.00 85 1016.5
20260509080300 56 41 1.0 5.0 0.00 0.02 0.00 86 1016.5
20260509080059 56 324 2.0 5.0 0.00 0.02 0.00 86 1016.5
20260509075850 55 64 2.0 5.0 0.00 0.02 0.00 86 1016.5
20260509075650 55 40 2.0 5.0 0.00 0.02 0.00 85 1016.5
20260509075449 55 61 2.0 5.0 0.00 0.02 0.00 84 1016.5
20260509075242 55 52 1.0 5.0 0.00 0.02 0.00 83 1016.5
20260509075036 56 39 1.0 3.0 0.00 0.02 0.00 86 1016.5
20260509074829 55 75 1.0 3.0 0.00 0.02 0.00 85 1016.5
20260509074626 55 65 1.0 3.0 0.00 0.02 0.00 85 1016.5
20260509074424 55 73 1.0 3.0 0.00 0.02 0.00 83 1016.6
20260509074219 55 76 0.0 3.0 0.00 0.02 0.00 82 1016.6
20260509073656 56 44 0.0 2.0 0.00 0.02 0.00 83 1016.6
20260509073452 55 52 0.0 2.0 0.00 0.02 0.00 84 1016.6
20260509073252 55 53 0.0 0.0 0.00 0.02 0.00 85 1016.6
20260509072719 55 55 0.0 2.0 0.00 0.02 0.00 85 1016.6
20260509072510 55 60 0.0 2.0 0.00 0.02 0.00 86 1016.5
20260509072311 54 66 0.0 0.0 0.00 0.02 0.00 86 1016.5
20260509072105 54 45 0.0 2.0 0.00 0.02 0.00 84 1016.6
20260509071532 54 56 0.0 2.0 0.00 0.02 0.00 84 1016.6
20260509071325 54 57 0.0 1.0 0.00 0.02 0.00 85 1016.6
20260509071125 54 64 0.0 1.0 0.00 0.02 0.00 84 1016.5
20260509070918 54 357 0.0 2.0 0.00 0.02 0.00 85 1016.6
20260509070710 54 66 0.0 2.0 0.00 0.02 0.00 85 1016.6
20260509070507 54 54 0.0 2.0 0.00 0.02 0.00 86 1016.6
20260509070308 54 25 0.0 2.0 0.00 0.02 0.00 86 1016.6
20260509070106 54 68 0.0 2.0 0.00 0.02 0.00 85 1016.5
20260509065858 54 74 0.0 2.0 0.00 0.02 0.00 84 1016.6
20260509065330 54 43 0.0 2.0 0.00 0.02 0.00 85 1016.5
20260509064804 53 39 0.0 3.0 0.00 0.02 0.00 86 1016.5
20260509064240 53 52 0.0 3.0 0.00 0.02 0.00 86 1016.5
20260509064038 53 49 1.0 3.0 0.00 0.02 0.00 86 1016.5
20260509063836 53 54 1.0 3.0 0.00 0.02 0.00 87 1016.5
20260509063628 52 41 1.0 3.0 0.00 0.02 0.00 87 1016.5
20260509063428 52 60 1.0 3.0 0.00 0.02 0.00 86 1016.5
20260509063217 53 64 1.0 3.0 0.00 0.02 0.00 85 1016.5
20260509063014 53 65 1.0 3.0 0.00 0.02 0.00 87 1016.5
20260509062813 53 62 1.0 5.0 0.00 0.02 0.00 87 1016.5
20260509062259 53 64 1.0 5.0 0.00 0.02 0.00 87 1016.5
20260509061732 53 45 1.0 6.0 0.00 0.02 0.00 87 1016.3
20260509061530 53 76 1.0 6.0 0.00 0.02 0.00 87 1016.4
20260509061010 52 98 2.0 6.0 0.00 0.02 0.00 87 1016.3
20260509060801 52 71 1.0 6.0 0.00 0.02 0.00 88 1016.4
20260509060551 52 93 2.0 6.0 0.00 0.02 0.00 89 1016.4
20260509055701 52 77 1.0 4.0 0.00 0.02 0.00 89 1016.2
20260509055450 51 93 1.0 4.0 0.00 0.02 0.00 89 1016.2
20260509055249 51 98 1.0 4.0 0.00 0.02 0.00 89 1016.4
20260509055043 51 84 1.0 4.0 0.00 0.02 0.00 88 1016.2
20260509054841 51 117 1.0 4.0 0.00 0.02 0.00 88 1016.4
20260509054637 51 122 1.0 3.0 0.00 0.02 0.00 89 1016.3
20260509054432 51 96 1.0 2.0 0.00 0.02 0.00 89 1016.2
20260509054233 50 103 1.0 2.0 0.00 0.02 0.00 90 1016.2
20260509054027 50 131 1.0 2.0 0.00 0.02 0.00 90 1016.2
20260509053824 50 105 1.0 2.0 0.00 0.02 0.00 91 1016.2
20260509053625 49 110 1.0 2.0 0.00 0.02 0.00 91 1016.2
20260509053054 48 105 0.0 2.0 0.00 0.02 0.00 93 1016.2
20260509052847 48 107 0.0 3.0 0.00 0.02 0.00 92 1016.2
20260509052642 48 110 0.0 3.0 0.00 0.02 0.00 92 1016.2
20260509052127 48 113 0.0 3.0 0.00 0.02 0.00 92 1016.2
20260509051926 48 114 0.0 3.0 0.00 0.02 0.00 92 1016.2
20260509051720 48 86 0.0 3.0 0.00 0.02 0.00 92 1016.2
20260509051514 48 87 1.0 3.0 0.00 0.02 0.00 92 1016.2
20260509051309 48 116 1.0 3.0 0.00 0.02 0.00 92 1016.2
20260509051104 48 113 0.0 3.0 0.00 0.02 0.00 92 1016.2
20260509050902 48 114 0.0 3.0 0.00 0.02 0.00 92 1016.2
20260509050659 48 113 0.0 3.0 0.00 0.02 0.00 92 1016.2
20260509050453 48 114 1.0 3.0 0.00 0.02 0.00 92 1016.1
20260509050248 48 120 1.0 3.0 0.00 0.02 0.00 92 1016.1
20260509050046 48 122 1.0 3.0 0.00 0.02 0.00 92 1016.0
20260509045836 48 127 1.0 3.0 0.00 0.02 0.00 92 1016.0
20260509045629 48 114 1.0 3.0 0.00 0.02 0.00 92 1016.0
20260509045422 48 127 1.0 3.0 0.00 0.02 0.00 92 1016.0
20260509045215 48 102 1.0 3.0 0.00 0.02 0.00 92 1016.0
20260509045011 48 120 1.0 3.0 0.00 0.02 0.00 92 1016.0
20260509044443 48 114 1.0 3.0 0.00 0.02 0.00 91 1015.9
20260509044236 48 119 1.0 3.0 0.00 0.02 0.00 91 1015.9
20260509043715 49 108 0.0 2.0 0.00 0.02 0.00 91 1015.8
20260509043143 49 115 0.0 2.0 0.00 0.02 0.00 91 1015.8
20260509042936 49 115 1.0 2.0 0.00 0.02 0.00 91 1015.8
20260509042103 48 117 0.0 2.0 0.00 0.02 0.00 91 1015.8
20260509041903 48 120 0.0 2.0 0.00 0.02 0.00 91 1015.8
20260509041654 48 126 0.0 2.0 0.00 0.02 0.00 90 1015.8
20260509041448 49 109 0.0 2.0 0.00 0.02 0.00 90 1015.8
20260509041245 49 144 0.0 0.0 0.00 0.02 0.00 90 1015.8
20260509041044 49 144 0.0 0.0 0.00 0.02 0.00 90 1015.8
20260509040833 49 144 0.0 0.0 0.00 0.02 0.00 90 1015.9
20260509040309 49 122 0.0 0.0 0.00 0.02 0.00 89 1015.8
20260509035750 49 122 0.0 0.0 0.00 0.02 0.00 88 1015.8
20260509035551 49 122 0.0 0.0 0.00 0.02 0.00 88 1015.9
20260509035023 50 121 0.0 0.0 0.00 0.02 0.00 88 1015.8
20260509034818 50 122 0.0 0.0 0.00 0.02 0.00 88 1015.8
20260509034609 50 122 0.0 0.0 0.00 0.02 0.00 88 1015.8
20260509034359 50 122 0.0 0.0 0.00 0.02 0.00 88 1015.8
20260509034152 50 122 0.0 0.0 0.00 0.02 0.00 88 1015.7
20260509033953 50 121 0.0 0.0 0.00 0.02 0.00 88 1015.7
20260509033745 50 122 0.0 0.0 0.00 0.02 0.00 89 1015.7
20260509033535 50 122 0.0 0.0 0.00 0.02 0.00 89 1015.7
20260509033326 50 121 0.0 0.0 0.00 0.02 0.00 88 1015.6
20260509033118 50 122 0.0 0.0 0.00 0.02 0.00 88 1015.7
20260509032908 50 122 0.0 0.0 0.00 0.02 0.00 88 1015.7
20260509032705 50 122 0.0 0.0 0.00 0.02 0.00 88 1015.7
20260509032502 50 122 0.0 0.0 0.00 0.02 0.00 88 1015.7
20260509032259 50 122 0.0 0.0 0.00 0.02 0.00 89 1015.7
20260509031413 50 122 0.0 0.0 0.00 0.02 0.00 89 1015.7
20260509031209 50 122 0.0 0.0 0.00 0.02 0.00 89 1015.7
20260509031003 50 121 0.0 0.0 0.00 0.02 0.00 89 1015.7
20260509030756 50 121 0.0 0.0 0.00 0.02 0.00 89 1015.7
20260509030551 50 122 0.0 0.0 0.00 0.02 0.00 89 1015.6
20260509030351 50 122 0.0 0.0 0.00 0.02 0.00 89 1015.6
20260509030144 50 121 0.0 0.0 0.00 0.02 0.00 89 1015.7
20260509025935 50 122 0.0 0.0 0.00 0.02 0.00 89 1015.7
20260509025727 50 122 0.0 0.0 0.00 0.02 0.00 89 1015.6
20260509025528 50 122 0.0 0.0 0.00 0.02 0.00 89 1015.7
20260509025320 50 122 0.0 0.0 0.00 0.02 0.00 89 1015.6
20260509025115 50 122 0.0 0.0 0.00 0.02 0.00 89 1015.7
20260509024913 50 122 0.0 0.0 0.00 0.02 0.00 89 1015.7
20260509024019 50 121 0.0 0.0 0.00 0.02 0.00 90 1015.8
20260509023453 50 122 0.0 2.0 0.00 0.02 0.00 91 1016.0
20260509023251 49 120 0.0 2.0 0.00 0.02 0.00 91 1016.1
20260509023048 49 113 0.0 1.0 0.00 0.02 0.00 91 1016.1
20260509022846 49 223 0.0 0.0 0.00 0.02 0.00 90 1016.2
20260509022644 49 224 1.0 2.0 0.00 0.02 0.00 90 1016.1
20260509022440 49 113 1.0 2.0 0.00 0.02 0.00 90 1016.1
20260509022232 49 115 1.0 2.0 0.00 0.02 0.00 90 1016.1
20260509021706 49 119 1.0 3.0 0.00 0.02 0.00 90 1016.0
20260509021505 50 123 1.0 3.0 0.00 0.02 0.00 90 1016.0
20260509021303 50 116 1.0 3.0 0.00 0.02 0.00 90 1016.0
20260509021101 49 115 1.0 3.0 0.00 0.02 0.00 90 1015.9
20260509020902 49 132 0.0 3.0 0.00 0.02 0.00 90 1015.9
20260509020702 49 125 0.0 3.0 0.00 0.02 0.00 90 1016.0
20260509020145 49 98 0.0 3.0 0.00 0.02 0.00 89 1015.9
20260509015944 50 139 0.0 3.0 0.00 0.02 0.00 89 1015.8
20260509015743 50 179 0.0 1.0 0.00 0.02 0.00 88 1015.8
20260509015544 50 226 0.0 0.0 0.00 0.02 0.00 88 1015.9
20260509015339 50 226 0.0 0.0 0.00 0.02 0.00 87 1015.9
20260509015138 50 226 0.0 0.0 0.00 0.02 0.00 87 1015.9
20260509014937 50 226 0.0 0.0 0.00 0.02 0.00 87 1015.9
20260509014738 50 226 0.0 0.0 0.00 0.02 0.00 87 1015.9
20260509014530 50 226 0.0 0.0 0.00 0.02 0.00 88 1015.8
20260509014322 50 226 0.0 0.0 0.00 0.02 0.00 87 1016.0